DW4277 Weather Reports


Display with metric or nautical units.
time (UTC)temp
F
wind
direction
speed
MPH
gust
MPH
rain 1hr
in
rain 24hr
in
rain mn
in
humidity
%
barometer
mb
20260504044555 57 185 1.0 11.0 0.00 0.00 0.00 64 1012.9
20260504043039 57 217 0.0 1.0 0.00 0.00 0.00 65 1012.8
20260504041533 57 214 5.0 12.0 0.00 0.00 0.00 65 1012.7
20260504040032 56 207 5.0 10.0 0.00 0.00 0.00 65 1012.7
20260504034536 56 208 0.0 10.0 0.00 0.00 0.00 65 1012.7
20260504033032 57 209 0.0 8.0 0.00 0.00 0.00 64 1012.7
20260504031523 57 209 3.0 16.0 0.00 0.00 0.00 63 1012.7
20260504030023 57 230 7.0 26.0 0.00 0.00 0.00 62 1012.7
20260504024521 57 206 8.0 22.0 0.00 0.00 0.00 62 1012.6
20260504023016 57 204 8.0 17.0 0.00 0.00 0.00 62 1012.6
20260504021512 57 211 0.0 0.0 0.00 0.00 0.00 62 1012.8
20260504020015 58 211 0.0 0.0 0.00 0.00 0.00 60 1013.0
20260504014507 58 201 0.0 14.0 0.00 0.00 0.00 59 1013.0
20260504013009 59 214 2.0 17.0 0.00 0.00 0.00 57 1012.7
20260504011502 60 216 2.0 23.0 0.00 0.00 0.00 56 1012.5
20260504010109 60 193 4.0 22.0 0.00 0.00 0.00 56 1012.5
20260504004557 60 184 3.0 16.0 0.00 0.00 0.00 55 1012.5
20260504003055 60 196 6.0 22.0 0.00 0.00 0.00 54 1012.5
20260504001610 60 177 6.0 21.0 0.00 0.00 0.00 54 1012.7
20260504000050 60 205 10.0 25.0 0.00 0.00 0.00 54 1012.7
20260503234546 61 191 7.0 22.0 0.00 0.00 0.00 53 1012.7
20260503233044 61 208 11.0 26.0 0.00 0.00 0.00 53 1012.8
20260503231543 61 199 9.0 20.0 0.00 0.00 0.00 53 1012.8
20260503230045 61 208 5.0 20.0 0.00 0.00 0.00 53 1012.9
20260503224538 62 168 7.0 22.0 0.00 0.00 0.00 53 1013.0
20260503223035 62 197 8.0 21.0 0.00 0.00 0.00 52 1013.1
20260503221540 62 188 11.0 27.0 0.00 0.00 0.00 51 1013.2
20260503220030 63 189 7.0 24.0 0.00 0.00 0.00 50 1013.3
20260503214529 63 205 10.0 31.0 0.00 0.00 0.00 49 1013.4
20260503213032 63 175 6.0 22.0 0.00 0.00 0.00 49 1013.4
20260503211528 63 190 3.0 20.0 0.00 0.00 0.00 49 1013.5
20260503210028 64 211 9.0 25.0 0.00 0.00 0.00 49 1013.6
20260503204527 64 206 8.0 19.0 0.00 0.00 0.00 49 1013.6
20260503203026 65 213 7.0 20.0 0.00 0.00 0.00 48 1013.7
20260503201530 65 217 7.0 22.0 0.00 0.00 0.00 47 1013.8
20260503200031 66 208 8.0 24.0 0.00 0.00 0.00 46 1013.7
20260503194529 66 184 9.0 24.0 0.00 0.00 0.00 46 1013.9
20260503193024 67 180 6.0 22.0 0.00 0.00 0.00 45 1013.9
20260503191526 67 199 13.0 26.0 0.00 0.00 0.00 44 1013.8
20260503190024 68 189 9.0 29.0 0.00 0.00 0.00 44 1013.7
20260503184527 68 181 8.0 22.0 0.00 0.00 0.00 43 1013.6
20260503183033 69 191 12.0 27.0 0.00 0.00 0.00 42 1013.5
20260503181533 70 173 15.0 29.0 0.00 0.00 0.00 41 1013.3
20260503180021 70 160 10.0 26.0 0.00 0.00 0.00 41 1013.2
20260503174521 71 173 9.0 26.0 0.00 0.00 0.00 40 1013.1
20260503173039 72 177 12.0 30.0 0.00 0.00 0.00 39 1013.1
20260503171521 73 185 16.0 32.0 0.00 0.00 0.00 37 1013.0
20260503081602 66 166 14.0 30.0 0.00 0.00 0.00 49 1017.6
20260503071546 62 192 10.0 20.0 0.00 0.00 0.00 56 1017.5